When you browse on this site, cookies collect data to enhance your experience and personalize the content and advertising you see.
Visit our Privacy Policy to learn more. By continuing to use the site, you agree to this use of cookies and data.
  • In Deutschland
  • Länderverzeichnis
  • Für 7 Tage
  • Wassertemperatur
  • Wetterkarte
  • Widgets
  • user-avatar
    Anmelden

    Stündliche Wetter Borisova

    Heute, 16 Oktober, Mittwoch

    Zeit Temperatur Niederschläge Wind Luftdruck Luftfeuchtigkeit
    00:00 +3°C° 0 mm 2 m/S 745 mmHg 92%
    01:00 +2°C° 0 mm 3 m/S 745 mmHg 93%
    02:00 +1°C° 0 mm 3 m/S 745 mmHg 92%
    03:00 +1°C° 0 mm 3 m/S 746 mmHg 91%
    04:00 +1°C° 0 mm 3 m/S 746 mmHg 90%
    05:00 -1°C° 0 mm 4 m/S 746 mmHg 90%
    06:00 -1°C° 0 mm 4 m/S 747 mmHg 90%
    07:00 -1°C° 0 mm 4 m/S 747 mmHg 90%
    08:00 0°C° 0 mm 4 m/S 747 mmHg 90%
    09:00 0°C° 0 mm 5 m/S 748 mmHg 90%
    10:00 +1°C° 0 mm 5 m/S 748 mmHg 91%
    11:00 +1°C° 0.1 mm 5 m/S 749 mmHg 91%
    12:00 +1°C° 0.1 mm 5 m/S 749 mmHg 92%
    13:00 +1°C° 0.1 mm 5 m/S 749 mmHg 92%
    14:00 +1°C° 0 mm 5 m/S 750 mmHg 89%
    15:00 +1°C° 0 mm 5 m/S 750 mmHg 86%
    16:00 +1°C° 0 mm 5 m/S 751 mmHg 83%
    17:00 +1°C° 0 mm 5 m/S 751 mmHg 84%
    18:00 +1°C° 0 mm 4 m/S 752 mmHg 85%
    19:00 0°C° 0 mm 4 m/S 752 mmHg 85%
    20:00 0°C° 0 mm 5 m/S 753 mmHg 85%
    21:00 0°C° 0 mm 5 m/S 753 mmHg 84%
    22:00 0°C° 0 mm 5 m/S 754 mmHg 84%
    23:00 -1°C° 0 mm 5 m/S 754 mmHg 85%

    Morgen, 17 Oktober, Donnerstag

    Zeit Temperatur Niederschläge Wind Luftdruck Luftfeuchtigkeit
    00:00 -1°C° 0 mm 5 m/S 755 mmHg 86%
    01:00 -1°C° 0 mm 5 m/S 755 mmHg 87%
    02:00 -2°C° 0 mm 5 m/S 755 mmHg 86%
    03:00 -2°C° 0 mm 5 m/S 756 mmHg 85%
    04:00 -2°C° 0 mm 5 m/S 756 mmHg 85%
    05:00 -2°C° 0 mm 5 m/S 757 mmHg 84%
    06:00 -2°C° 0 mm 4 m/S 757 mmHg 84%
    07:00 -2°C° 0 mm 4 m/S 757 mmHg 83%
    08:00 -1°C° 0 mm 4 m/S 758 mmHg 80%
    09:00 0°C° 0 mm 4 m/S 758 mmHg 76%
    10:00 0°C° 0 mm 4 m/S 758 mmHg 72%
    11:00 +1°C° 0 mm 4 m/S 758 mmHg 71%
    12:00 +1°C° 0 mm 4 m/S 758 mmHg 69%
    13:00 +1°C° 0 mm 4 m/S 758 mmHg 67%
    14:00 +1°C° 0 mm 4 m/S 758 mmHg 68%
    15:00 +1°C° 0 mm 3 m/S 758 mmHg 70%
    16:00 +1°C° 0 mm 3 m/S 758 mmHg 72%
    17:00 +2°C° 0 mm 2 m/S 758 mmHg 74%
    18:00 +1°C° 0 mm 2 m/S 758 mmHg 75%
    19:00 +1°C° 0 mm 2 m/S 758 mmHg 77%
    20:00 +1°C° 0 mm 2 m/S 757 mmHg 82%
    21:00 -1°C° 0 mm 2 m/S 757 mmHg 86%
    22:00 -1°C° 0 mm 2 m/S 757 mmHg 90%
    23:00 -1°C° 0.3 mm 2 m/S 756 mmHg 92%

    übermorgen, 18 Oktober, Freitag

    Zeit Temperatur Niederschläge Wind Luftdruck Luftfeuchtigkeit
    00:00 -1°C° 0.3 mm 2 m/S 755 mmHg 95%
    01:00 -1°C° 0.3 mm 2 m/S 755 mmHg 97%
    02:00 -1°C° 0.3 mm 2 m/S 754 mmHg 97%
    03:00 -1°C° 0.3 mm 2 m/S 754 mmHg 97%
    04:00 -1°C° 0.3 mm 2 m/S 754 mmHg 97%
    05:00 -1°C° 0.1 mm 2 m/S 753 mmHg 97%
    06:00 +1°C° 0.1 mm 2 m/S 753 mmHg 97%
    07:00 +1°C° 0.1 mm 2 m/S 752 mmHg 97%
    08:00 +1°C° 0 mm 2 m/S 752 mmHg 97%
    09:00 +1°C° 0 mm 2 m/S 752 mmHg 97%
    10:00 +1°C° 0 mm 2 m/S 752 mmHg 97%
    11:00 0°C° 0.4 mm 3 m/S 752 mmHg 97%
    12:00 0°C° 0.4 mm 3 m/S 752 mmHg 97%
    13:00 -1°C° 0.4 mm 4 m/S 752 mmHg 97%
    14:00 -1°C° 0.2 mm 4 m/S 752 mmHg 97%
    15:00 -1°C° 0.2 mm 5 m/S 753 mmHg 97%
    16:00 -1°C° 0.2 mm 5 m/S 753 mmHg 97%
    17:00 -2°C° 0.1 mm 5 m/S 754 mmHg 94%
    18:00 -3°C° 0.1 mm 6 m/S 755 mmHg 92%
    19:00 -3°C° 0.1 mm 6 m/S 756 mmHg 89%
    20:00 -2°C° 0 mm 5 m/S 757 mmHg 88%
    21:00 -4°C° 0 mm 5 m/S 758 mmHg 87%
    22:00 -4°C° 0 mm 5 m/S 759 mmHg 85%
    23:00 -4°C° 0 mm 4 m/S 759 mmHg 86%

    19 Oktober, Samstag

    Zeit Temperatur Niederschläge Wind Luftdruck Luftfeuchtigkeit
    00:00 -5°C° 0 mm 4 m/S 759 mmHg 87%
    01:00 -5°C° 0 mm 4 m/S 760 mmHg 88%
    02:00 -6°C° 0 mm 3 m/S 761 mmHg 88%
    03:00 -6°C° 0 mm 3 m/S 761 mmHg 88%
    04:00 -6°C° 0 mm 3 m/S 762 mmHg 88%
    05:00 -6°C° 0 mm 3 m/S 762 mmHg 88%
    06:00 -6°C° 0 mm 3 m/S 763 mmHg 88%
    07:00 -5°C° 0 mm 2 m/S 763 mmHg 88%
    08:00 -4°C° 0 mm 2 m/S 763 mmHg 83%
    09:00 -4°C° 0 mm 2 m/S 764 mmHg 77%
    10:00 -3°C° 0 mm 2 m/S 764 mmHg 72%
    11:00 -2°C° 0 mm 2 m/S 764 mmHg 68%
    12:00 -2°C° 0 mm 2 m/S 765 mmHg 64%
    13:00 +1°C° 0 mm 1 m/S 765 mmHg 61%
    14:00 +1°C° 0 mm 1 m/S 765 mmHg 63%
    15:00 0°C° 0 mm 1 m/S 765 mmHg 66%
    16:00 -1°C° 0 mm 0 m/S 765 mmHg 69%
    17:00 -2°C° 0 mm 0 m/S 765 mmHg 71%
    18:00 -2°C° 0 mm 0 m/S 766 mmHg 73%
    19:00 -3°C° 0 mm 0 m/S 766 mmHg 75%
    20:00 -2°C° 0 mm 1 m/S 766 mmHg 76%
    21:00 -2°C° 0 mm 1 m/S 766 mmHg 78%
    22:00 -2°C° 0 mm 1 m/S 766 mmHg 79%
    23:00 -4°C° 0 mm 2 m/S 766 mmHg 80%

    20 Oktober, Sonntag

    Zeit Temperatur Niederschläge Wind Luftdruck Luftfeuchtigkeit
    00:00 -4°C° 0 mm 2 m/S 766 mmHg 82%
    01:00 -4°C° 0 mm 2 m/S 766 mmHg 83%
    02:00 -5°C° 0 mm 2 m/S 766 mmHg 84%
    03:00 -5°C° 0 mm 2 m/S 766 mmHg 85%
    04:00 -5°C° 0 mm 2 m/S 766 mmHg 86%
    05:00 -6°C° 0 mm 3 m/S 766 mmHg 86%
    06:00 -6°C° 0 mm 3 m/S 766 mmHg 85%
    07:00 -6°C° 0 mm 3 m/S 766 mmHg 85%
    08:00 -5°C° 0 mm 4 m/S 766 mmHg 81%
    09:00 -3°C° 0 mm 4 m/S 766 mmHg 77%
    10:00 -2°C° 0 mm 5 m/S 766 mmHg 73%
    11:00 -2°C° 0 mm 5 m/S 765 mmHg 72%
    12:00 -1°C° 0 mm 5 m/S 765 mmHg 71%
    13:00 -1°C° 0 mm 5 m/S 764 mmHg 70%
    14:00 -1°C° 0 mm 4 m/S 764 mmHg 74%
    15:00 -1°C° 0 mm 4 m/S 764 mmHg 77%
    16:00 -2°C° 0 mm 4 m/S 764 mmHg 81%
    17:00 -2°C° 0 mm 4 m/S 764 mmHg 82%
    18:00 -3°C° 0 mm 4 m/S 764 mmHg 83%
    19:00 -3°C° 0 mm 4 m/S 764 mmHg 85%
    20:00 -3°C° 0 mm 4 m/S 764 mmHg 85%
    21:00 -3°C° 0 mm 4 m/S 763 mmHg 84%
    22:00 -3°C° 0 mm 4 m/S 763 mmHg 84%
    23:00 -4°C° 0 mm 3 m/S 763 mmHg 85%

    21 Oktober, Montag

    Zeit Temperatur Niederschläge Wind Luftdruck Luftfeuchtigkeit
    00:00 -4°C° 0 mm 3 m/S 763 mmHg 86%
    01:00 -4°C° 0 mm 3 m/S 763 mmHg 87%
    02:00 -3°C° 0 mm 4 m/S 763 mmHg 88%
    03:00 -3°C° 0 mm 4 m/S 763 mmHg 89%
    04:00 -3°C° 0 mm 4 m/S 763 mmHg 89%
    05:00 -3°C° 0 mm 4 m/S 763 mmHg 89%
    06:00 -3°C° 0 mm 4 m/S 762 mmHg 89%
    07:00 -3°C° 0 mm 4 m/S 762 mmHg 88%
    08:00 -2°C° 0 mm 4 m/S 762 mmHg 86%
    09:00 -1°C° 0 mm 4 m/S 762 mmHg 83%
    10:00 0°C° 0 mm 4 m/S 762 mmHg 81%
    11:00 +1°C° 0 mm 4 m/S 762 mmHg 80%
    12:00 +3°C° 0 mm 4 m/S 762 mmHg 79%
    13:00 +3°C° 0 mm 4 m/S 761 mmHg 78%
    14:00 +3°C° 0 mm 4 m/S 761 mmHg 81%
    15:00 +1°C° 0 mm 4 m/S 761 mmHg 84%
    16:00 +2°C° 0 mm 3 m/S 760 mmHg 87%
    17:00 0°C° 0 mm 4 m/S 760 mmHg 88%
    18:00 0°C° 0 mm 4 m/S 760 mmHg 88%
    19:00 -1°C° 0 mm 4 m/S 760 mmHg 88%
    20:00 0°C° 0 mm 4 m/S 759 mmHg 87%
    21:00 0°C° 0 mm 4 m/S 759 mmHg 87%
    22:00 0°C° 0 mm 4 m/S 759 mmHg 86%
    23:00 0°C° 0.4 mm 4 m/S 758 mmHg 87%
    Mehr zeigen